+ View the NASA Portal
+ Center for Near-Earth Object Studies
IMPORTANT:
The SSD Announcement email list is now available. Major changes are coming in the near future, including possible hostname and/or URL changes. To be notified of such changes, subscribe to this email list.
Please visit
this page
for more details.
Don't show this message again
JPL Small-Body Database Browser
Search:
[
help
]
249150 (2008 AA72)
Classification:
Main-belt Asteroid
SPK-ID:
2249150
[
Ephemeris
|
Orbit Diagram
|
Orbital Elements
|
Mission Design
|
Physical Parameters
|
Discovery Circumstances
|
Close-Approach Data
]
[ show orbit diagram ]
Orbital Elements at Epoch 2458600.5 (2019-Apr-27.0) TDB
Reference:
JPL 15
(heliocentric ecliptic J2000)
Element
Value
Uncertainty (1-sigma)
Units
e
.09829136873873226
6.3617e-08
a
3.130734111081955
5.857e-08
au
q
2.823009970146672
1.984e-07
au
i
8.754543936853361
7.4866e-06
deg
node
266.8463939099112
4.0292e-05
deg
peri
335.4175713782799
5.2262e-05
deg
M
259.5583276197412
3.5334e-05
deg
t
p
2459165.019748075096
(2020-Nov-11.51974807)
0.00020523
TDB
period
2023.334583056761
5.54
5.6779e-05
1.555e-07
d
yr
n
.1779241075670879
4.9929e-09
deg/d
Q
3.438458252017239
6.4326e-08
au
Orbit Determination Parameters
# obs. used (total)
257
data-arc span
6263 days (17.15 yr)
first obs. used
2001-12-17
last obs. used
2019-02-09
planetary ephem.
DE431
SB-pert. ephem.
SB431-N16
condition code
0
norm. resid. RMS
.58219
source
ORB
producer
Otto Matic
solution date
2019-Jul-14 10:10:31
Additional Information
Earth MOID
= 1.8123 au
Jupiter MOID
= 1.62819 au
T_jup
= 3.188
[ show covariance matrix ]
[
Ephemeris
|
Orbit Diagram
|
Orbital Elements
|
Mission Design
|
Physical Parameters
|
Discovery Circumstances
|
Close-Approach Data
]
Physical Parameter Table
Parameter
Symbol
Value
Units
Sigma
Reference
Notes
absolute magnitude
H
15.2
n/a
MPO433632
diameter
diameter
5.039
km
0.312
urn:nasa:pds:neowise_diameters_albedos::2.0[mainbelt] (http://adsabs.harvard.edu/abs/2011ApJ...741...68M)
geometric albedo
albedo
0.058
0.020
urn:nasa:pds:neowise_diameters_albedos::2.0[mainbelt] (http://adsabs.harvard.edu/abs/2011ApJ...741...68M)
249150 (2008 AA72)
Discovered 2008-Jan-13 by Mt. Lemmon Survey at Mount Lemmon
Reference:
20100824/Numbers.arc
Last Updated:
2010-08-27
[ show close-approach data ]
Alternate Designations
2008 AA72
= 2010 HC58
[
Ephemeris
|
Orbit Diagram
|
Orbital Elements
|
Mission Design
|
Physical Parameters
|
Discovery Circumstances
|
Close-Approach Data
]
2019-Dec-13 22:08 UT
(server date/time)
Site Manager:
Ryan S. Park
Webmaster
:
Alan B. Chamberlin